Chehalis, WA

6:16 AM PDT on September 26, 2017 (GMT -0700)
Chehalis-Centralia

Weather History for KCLS - February, 2013

Change the Weather History Date:

Tuesday, February 26, 2013

  Actual Average (KTDO) Record (KTDO)
Temperature  
Mean Temperature 40 °F -  
Max Temperature 48 °F 53 °F 72 °F (1992)
Min Temperature 33 °F 34 °F 13 °F (1962)
Degree Days  
Heating Degree Days 24    
Moisture  
Dew Point 35 °F    
Average Humidity 78    
Maximum Humidity 100    
Minimum Humidity 54    
Precipitation  
Precipitation 0.00 in - - ()
Sea Level Pressure  
Sea Level Pressure 30.31 in    
Wind  
Wind Speed 7 mph (South)    
Max Wind Speed 14 mph    
Max Gust Speed 21 mph    
Visibility 9 miles    
Events      
Averages and records for this station are not official NWS values.
T = Trace of Precipitation, MM = Missing Value Source: NWS Daily Summary

Daily Weather History Graph

Daily Weather History Graph

Search for Another Location

Airport or City:

Trip Planner

Search our weather history database for the weather conditions in past years. The results will help you decide how hot, cold, wet, or windy it might be!

Date:

Astronomy

Feb. 26, 2013 Rise Set
Actual Time 6:56 AM PST 5:53 PM PST
Civil Twilight 6:25 AM PST 6:24 PM PST
Nautical Twilight 5:50 AM PST 6:59 PM PST
Astronomical Twilight 5:15 AM PST 7:34 PM PST
Moon 7:25 PM PST 6:55 AM PST
Length of Visible Light 11h 58m
Length of Day
10h 57m
Full, 99% of the Moon is Illuminated
Feb 26
Full
Mar 4
Last Quarter
Mar 11
New
Mar 19
First Quarter
Mar 27
Full

Hourly Weather History & Observations

Time (PST) Temp. Windchill Dew Point Humidity Pressure Visibility Wind Dir Wind Speed Gust Speed Precip Events Conditions
12:15 AM 35.6 °F 32.8 °F 35.6 °F 100% 30.36 in 10.0 mi SSW 3.5 mph - N/A   Overcast
12:35 AM 35.6 °F 29.9 °F 35.6 °F 100% 30.35 in 10.0 mi South 6.9 mph - N/A   Overcast
12:55 AM 35.6 °F 29.9 °F 35.6 °F 100% 30.36 in 10.0 mi South 6.9 mph - N/A   Overcast
1:15 AM 35.6 °F 32.8 °F 33.8 °F 93% 30.36 in 10.0 mi SW 3.5 mph - N/A   Mostly Cloudy
1:35 AM 35.6 °F 32.8 °F 32.0 °F 87% 30.36 in 10.0 mi SSW 3.5 mph - N/A   Overcast
1:55 AM 35.6 °F 32.8 °F 32.0 °F 87% 30.36 in 10.0 mi SW 3.5 mph - N/A   Overcast
2:15 AM 35.6 °F 32.8 °F 33.8 °F 93% 30.37 in 10.0 mi SW 3.5 mph - N/A   Mostly Cloudy
2:35 AM 35.6 °F 32.8 °F 33.8 °F 93% 30.37 in 10.0 mi SW 3.5 mph - N/A   Mostly Cloudy
2:55 AM 35.6 °F 32.8 °F 33.8 °F 93% 30.37 in 10.0 mi SW 3.5 mph - N/A   Mostly Cloudy
3:15 AM 35.6 °F 31.7 °F 33.8 °F 93% 30.37 in 10.0 mi SSW 4.6 mph - N/A   Overcast
3:35 AM 35.6 °F 31.7 °F 35.6 °F 100% 30.37 in 10.0 mi SSW 4.6 mph - N/A   Mostly Cloudy
3:55 AM 35.6 °F 32.8 °F 33.8 °F 93% 30.36 in 9.0 mi SSW 3.5 mph - N/A   Partly Cloudy
4:15 AM 33.8 °F 30.8 °F 32.0 °F 93% 30.37 in 10.0 mi SW 3.5 mph - N/A   Scattered Clouds
4:35 AM 33.8 °F 30.8 °F 32.0 °F 93% 30.37 in 10.0 mi SW 3.5 mph - N/A   Overcast
4:55 AM 35.6 °F 31.7 °F 33.8 °F 93% 30.38 in 10.0 mi South 4.6 mph - N/A   Overcast
5:15 AM 35.6 °F 31.7 °F 35.6 °F 100% 30.37 in 10.0 mi SSW 4.6 mph - N/A   Overcast
5:55 AM 37.4 °F 32.1 °F 35.6 °F 93% 30.37 in 10.0 mi South 6.9 mph - N/A   Overcast
6:35 AM 37.4 °F 31.4 °F 35.6 °F 93% 30.37 in 9.0 mi South 8.1 mph - N/A   Overcast
6:55 AM 37.4 °F 32.1 °F 33.8 °F 87% 30.37 in 10.0 mi South 6.9 mph - N/A   Overcast
7:15 AM 37.4 °F 32.8 °F 33.8 °F 87% 30.38 in 10.0 mi South 5.8 mph - N/A   Mostly Cloudy
7:35 AM 37.4 °F 32.8 °F 35.6 °F 93% 30.38 in 10.0 mi South 5.8 mph - N/A   Mostly Cloudy
7:55 AM 37.4 °F 32.1 °F 35.6 °F 93% 30.38 in 10.0 mi South 6.9 mph - N/A   Mostly Cloudy
8:15 AM 37.4 °F 31.4 °F 35.6 °F 93% 30.38 in 10.0 mi South 8.1 mph - N/A   Partly Cloudy
8:35 AM 37.4 °F 32.8 °F 35.6 °F 93% 30.38 in 10.0 mi South 5.8 mph - N/A   Clear
8:55 AM 39.2 °F 33.6 °F 35.6 °F 87% 30.38 in 10.0 mi South 8.1 mph - N/A   Scattered Clouds
9:15 AM 41.0 °F 36.4 °F 35.6 °F 81% 30.38 in 10.0 mi SSE 6.9 mph - N/A   Overcast
9:35 AM 41.0 °F 36.4 °F 35.6 °F 81% 30.37 in 9.0 mi SSE 6.9 mph - N/A   Mostly Cloudy
9:55 AM 41.0 °F 35.8 °F 35.6 °F 81% 30.37 in 10.0 mi South 8.1 mph - N/A   Partly Cloudy
10:15 AM 41.0 °F 34.7 °F 35.6 °F 81% 30.35 in 7.0 mi SSE 10.4 mph - N/A   Partly Cloudy
10:35 AM 41.0 °F 34.7 °F 35.6 °F 81% 30.35 in 10.0 mi South 10.4 mph - N/A   Clear
10:55 AM 42.8 °F 38.0 °F 37.4 °F 81% 30.34 in 7.0 mi South 8.1 mph - N/A   Partly Cloudy
11:15 AM 42.8 °F 38.0 °F 37.4 °F 81% 30.34 in 10.0 mi South 8.1 mph - N/A   Scattered Clouds
11:35 AM 44.6 °F 39.7 °F 35.6 °F 71% 30.33 in 8.0 mi South 9.2 mph - N/A   Clear
11:55 AM 44.6 °F 39.2 °F 37.4 °F 76% 30.33 in 5.0 mi SSE 10.4 mph - N/A   Haze
12:15 PM 46.4 °F 40.7 °F 37.4 °F 71% 30.32 in 6.0 mi South 12.7 mph 18.4 mph N/A   Haze
12:35 PM 48.2 °F - 37.4 °F 66% 30.31 in 10.0 mi South 13.8 mph 18.4 mph N/A   Partly Cloudy
12:55 PM 48.2 °F - 35.6 °F 62% 30.30 in 9.0 mi South 13.8 mph 20.7 mph N/A   Partly Cloudy
1:15 PM 46.4 °F 40.4 °F 35.6 °F 66% 30.29 in 10.0 mi South 13.8 mph 17.3 mph N/A   Mostly Cloudy
1:35 PM 46.4 °F 41.9 °F 35.6 °F 66% 30.29 in 10.0 mi South 9.2 mph - N/A   Overcast
1:55 PM 46.4 °F 41.9 °F 33.8 °F 62% 30.29 in 9.0 mi South 9.2 mph - N/A   Overcast
2:15 PM 48.2 °F - 33.8 °F 58% 30.28 in 10.0 mi South 11.5 mph 17.3 mph N/A   Overcast
2:35 PM 48.2 °F - 32.0 °F 54% 30.28 in 10.0 mi SSW 13.8 mph 19.6 mph N/A   Overcast
2:55 PM 48.2 °F - 32.0 °F 54% 30.28 in 10.0 mi South 10.4 mph - N/A   Mostly Cloudy
3:15 PM 46.4 °F 40.7 °F 33.8 °F 62% 30.28 in 10.0 mi South 12.7 mph - N/A   Mostly Cloudy
3:35 PM 48.2 °F - 32.0 °F 54% 30.28 in 10.0 mi South 11.5 mph 17.3 mph N/A   Partly Cloudy
3:55 PM 46.4 °F 41.5 °F 33.8 °F 62% 30.27 in 10.0 mi South 10.4 mph - N/A   Mostly Cloudy
4:15 PM 46.4 °F 41.5 °F 33.8 °F 62% 30.27 in 10.0 mi South 10.4 mph 16.1 mph N/A   Overcast
4:35 PM 46.4 °F 42.9 °F 32.0 °F 57% 30.27 in 10.0 mi South 6.9 mph - N/A   Overcast
4:55 PM 46.4 °F 42.4 °F 33.8 °F 62% 30.26 in 10.0 mi South 8.1 mph - N/A   Overcast
5:15 PM 46.4 °F 42.4 °F 33.8 °F 62% 30.26 in 10.0 mi South 8.1 mph - N/A   Overcast
5:35 PM 44.6 °F 40.7 °F 35.6 °F 71% 30.25 in 10.0 mi South 6.9 mph - N/A   Mostly Cloudy
5:55 PM 44.6 °F 40.2 °F 33.8 °F 66% 30.24 in 10.0 mi South 8.1 mph - N/A   Overcast
6:15 PM 44.6 °F 39.2 °F 33.8 °F 66% 30.24 in 9.0 mi SSW 10.4 mph - N/A   Overcast
6:35 PM 44.6 °F 41.4 °F 35.6 °F 71% 30.24 in 6.0 mi SSW 5.8 mph - N/A   Haze
6:55 PM 44.6 °F 40.2 °F 35.6 °F 71% 30.24 in 6.0 mi South 8.1 mph - N/A   Haze
7:15 PM 44.6 °F 40.7 °F 35.6 °F 71% 30.23 in 7.0 mi South 6.9 mph - N/A   Overcast
7:35 PM 44.6 °F 39.7 °F 33.8 °F 66% 30.24 in 6.0 mi South 9.2 mph - N/A   Haze
7:55 PM 44.6 °F 40.2 °F 35.6 °F 71% 30.24 in 9.0 mi South 8.1 mph - N/A   Overcast
8:15 PM 44.6 °F 41.4 °F 35.6 °F 71% 30.24 in 8.0 mi South 5.8 mph - N/A   Overcast
8:35 PM 44.6 °F 40.7 °F 35.6 °F 71% 30.24 in 7.0 mi SSW 6.9 mph - N/A   Overcast
8:55 PM 44.6 °F 40.7 °F 35.6 °F 71% 30.24 in 6.0 mi SSW 6.9 mph - N/A   Haze
9:15 PM 42.8 °F 39.3 °F 35.6 °F 76% 30.24 in 6.0 mi SSW 5.8 mph - N/A   Haze
9:35 PM 44.6 °F 41.4 °F 35.6 °F 71% 30.24 in 6.0 mi SSW 5.8 mph - N/A   Haze
9:55 PM 42.8 °F 37.0 °F 35.6 °F 76% 30.24 in 6.0 mi SSW 10.4 mph - N/A   Haze
10:15 PM 42.8 °F 38.0 °F 35.6 °F 76% 30.23 in 10.0 mi South 8.1 mph - N/A   Overcast
10:35 PM 42.8 °F 38.0 °F 35.6 °F 76% 30.23 in 9.0 mi SSW 8.1 mph - N/A   Overcast
10:55 PM 44.6 °F 39.2 °F 35.6 °F 71% 30.23 in 7.0 mi SSW 10.4 mph - N/A   Overcast
11:35 PM 42.8 °F 39.3 °F 35.6 °F 76% 30.24 in 8.0 mi SW 5.8 mph - N/A   Overcast
11:55 PM 42.8 °F 38.6 °F 35.6 °F 76% 30.24 in 7.0 mi SSW 6.9 mph - N/A   Mostly Cloudy